Location: Bourguignon
(49.5441°N, 3.1585°E)
Time: 11:15:09
(UTC+00:00)

Cosmos 1428 Rocket - Pass Details

Date: 15 May 2026
Orbit: 946 x 987 km, 82.9° (Epoch: 5 June)

Event Time Altitude Azimuth Distance (km) Brightness Sun altitude
Rises 21:29:08 0° 350° (N) 3,682 8.8 -15.2°
Reaches altitude 10° 21:31:40 10° 351° (N) 2,725 7.9 -15.4°
Maximum altitude 21:37:55 86° 79° (E) 972 4.4 -16.0°
Enters shadow 21:42:00 23° 169° (S) 1,922 5.5 -16.3°
